Regional Weather Roundup
Issued by NWS Goodland, KS

Home | Current Version | Previous Version | Text Only | Print | Product List | Glossary On
Versions: 1 2 3 4 5 6 7 8 9 10 11 12 13 14 15 16 17 18 19 20 21 22 23 24 25 26 27 28 29 30 31 32 33 34 35 36 37 38 39 40 41 42 43 44 45 46 47 48 49 50
000
ASUS43 KGLD 162008
RWRGLD

GOODLAND FORECAST AREA HOURLY WEATHER ROUNDUP
NATIONAL WEATHER SERVICE GOODLAND KS
200 PM MDT TUE SEP 16 2014

...OFFICIAL OBSERVATIONS...

CITY           SKY/WX    TMP DP  RH WIND       PRES   REMARKS
GOODLAND KS    SUNNY     81  56  42 S14       30.05F
HILL CITY KS   CLOUDY    70  57  63 S14G21    30.07F
IMPERIAL NEB   SUNNY     82  54  37 SW6       30.00F
MCCOOK NEB     SUNNY     75  57  53 S16G22    30.02F
AKRON CO       SUNNY     86  41  20 W10       30.08F
BURLINGTON CO  SUNNY     85  46  25 SW5       30.07F
LIMON CO       SUNNY     86  32  14 N17G23    30.15F
$$

...UNOFFICIAL OBSERVATIONS...

CITY           SKY/WX    TMP DP  RH WIND       PRES   REMARKS
COLBY KS       SUNNY     81  61  50 S8G18     30.04F
GOVE KS          N/A     75  32  20 MISG        N/A
NORTON KS      CLOUDY    70  52  52 S15       30.04F
SHARON SPRINGS   N/A     81  58  45 S13         N/A
WAKEENEY KS      N/A     70  55  58 MISG        N/A
TRENTON NEB      N/A     80  32  17 S14         N/A
YUMA CO          N/A     89  37  16 W18G26      N/A
$$


USA.gov is the U.S. government's official web portal to all federal, state and local government web resources and services.